OpenBCM V1.13 (Linux)

Packet Radio Mailbox

DB0FHN

[JN59NK Nuernberg]

 Login: GUEST





  
CX2SA  > KEPS     05.11.04 13:49l 277 Lines 7263 Bytes #999 (0) @ AMSAT
BID : ORB04309.D
Read: GUEST
Subj: Orbital Elements  04309.MICROS
Path: DB0FHN<DB0RGB<OK0PPL<DB0RES<ON0BEL<7M3TJZ<EA5AKC<CX2SA
Sent: 041105/1146Z @:CX2SA.LAV.URY.SA #:35118 [Minas] FBB7.00e $:ORB04309.D
From: CX2SA@CX2SA.LAV.URY.SA
To  : KEPS@AMSAT


HR AMSAT ORBITAL ELEMENTS FOR THE MICROSATS
FROM WA5QGD FORT WORTH,TX November 4, 2004
SEND SUBSCRIBE/UNSUBSCRIBE TO majordomo@amsat.org ONLY
BID: ORB04309.D
TO ALL RADIO AMATEURS BT

Satellite: UO-14
Catalog number: 20437
Epoch time:      04309.59798944
Element set:     630
Inclination:       98.2076 deg
RA of node:       325.8171 deg
Eccentricity:    0.0010463
Arg of perigee:   137.4198 deg
Mean anomaly:     222.7822 deg
Mean motion:   14.31378166 rev/day
Decay rate:        4.3e-07 rev/day^2
Epoch rev:           77190
Checksum:              314

Satellite: AO-16
Catalog number: 20439
Epoch time:      04309.64361409
Element set:     319
Inclination:       98.2321 deg
RA of node:       340.6707 deg
Eccentricity:    0.0011194
Arg of perigee:   145.8272 deg
Mean anomaly:     214.3646 deg
Mean motion:   14.31637942 rev/day
Decay rate:        9.9e-07 rev/day^2
Epoch rev:           77196
Checksum:              309

Satellite: WO-18
Catalog number: 20441
Epoch time:      04309.59007304
Element set:     509
Inclination:       98.2460 deg
RA of node:       344.7390 deg
Eccentricity:    0.0012123
Arg of perigee:   146.5718 deg
Mean anomaly:     213.6235 deg
Mean motion:   14.31712669 rev/day
Decay rate:        8.3e-07 rev/day^2
Epoch rev:           77201
Checksum:              279

Satellite: LO-19
Catalog number: 20442
Epoch time:      04308.65674215
Element set:    0247
Inclination:      098.2573 deg
RA of node:       348.0027 deg
Eccentricity:    0.0012071
Arg of perigee:   148.9960 deg
Mean anomaly:     211.1936 deg
Mean motion:   14.31884615 rev/day
Decay rate:       1.06e-06 rev/day^2
Epoch rev:           77194
Checksum:              301

Satellite: UO-22
Catalog number: 21575
Epoch time:      04309.19683419
Element set:     245
Inclination:       98.2128 deg
RA of node:       277.4277 deg
Eccentricity:    0.0008195
Arg of perigee:    53.8799 deg
Mean anomaly:     306.3148 deg
Mean motion:   14.39428623 rev/day
Decay rate:       2.45e-06 rev/day^2
Epoch rev:           69813
Checksum:              337

Satellite: KO-23
Catalog number: 22077
Epoch time:      04308.92185466
Element set:    0324
Inclination:      066.0838 deg
RA of node:       258.2118 deg
Eccentricity:    0.0011344
Arg of perigee:   308.5739 deg
Mean anomaly:     051.4262 deg
Mean motion:   12.86426932 rev/day
Decay rate:       -3.7e-07 rev/day^2
Epoch rev:           57461
Checksum:              302

Satellite: AO-27
Catalog number: 22825
Epoch time:      04309.17199232
Element set:     979
Inclination:       98.2455 deg
RA of node:       310.7116 deg
Eccentricity:    0.0008112
Arg of perigee:   202.5877 deg
Mean anomaly:     157.4965 deg
Mean motion:   14.29093764 rev/day
Decay rate:       1.20e-06 rev/day^2
Epoch rev:           57908
Checksum:              322

Satellite: IO-26
Catalog number: 22826
Epoch time:      04309.10123768
Element set:     649
Inclination:       98.2440 deg
RA of node:       311.9319 deg
Eccentricity:    0.0008212
Arg of perigee:   204.4731 deg
Mean anomaly:     155.6061 deg
Mean motion:   14.29331073 rev/day
Decay rate:       1.11e-06 rev/day^2
Epoch rev:           57913
Checksum:              274

Satellite: KO-25
Catalog number: 22828
Epoch time:      04308.58821731
Element set:     913
Inclination:       98.2365 deg
RA of node:       311.6771 deg
Eccentricity:    0.0009750
Arg of perigee:   182.0292 deg
Mean anomaly:     178.0839 deg
Mean motion:   14.29649605 rev/day
Decay rate:        9.8e-07 rev/day^2
Epoch rev:           54728
Checksum:              332

Satellite: TO-31
Catalog number: 25396
Epoch time:      04308.94715286
Element set:    0124
Inclination:      098.5616 deg
RA of node:       016.6362 deg
Eccentricity:    0.0004154
Arg of perigee:   117.4447 deg
Mean anomaly:     242.7157 deg
Mean motion:   14.23639095 rev/day
Decay rate:       -4.3e-07 rev/day^2
Epoch rev:           32836
Checksum:              305

Satellite: GO-32
Catalog number: 25397
Epoch time:      04309.85243488
Element set:     596
Inclination:       98.5506 deg
RA of node:        15.4457 deg
Eccentricity:    0.0002269
Arg of perigee:   122.7304 deg
Mean anomaly:     237.4094 deg
Mean motion:   14.23057547 rev/day
Decay rate:        9.4e-07 rev/day^2
Epoch rev:           32842
Checksum:              316

Satellite: UO-36
Catalog number: 25693
Epoch time:      04309.83755031
Element set:     610
Inclination:       64.5605 deg
RA of node:       252.6598 deg
Eccentricity:    0.0044543
Arg of perigee:   240.0964 deg
Mean anomaly:     119.5712 deg
Mean motion:   14.78410660 rev/day
Decay rate:       4.74e-06 rev/day^2
Epoch rev:           29865
Checksum:              315

Satellite: SO-41
Catalog number: 26545
Epoch time:      04309.17008447
Element set:     919
Inclination:       64.5583 deg
RA of node:       270.6482 deg
Eccentricity:    0.0025104
Arg of perigee:   345.0112 deg
Mean anomaly:      15.0203 deg
Mean motion:   14.79904846 rev/day
Decay rate:       7.64e-06 rev/day^2
Epoch rev:           22162
Checksum:              284

Satellite: MO-46
Catalog number: 26548
Epoch time:      04309.03629167
Element set:      19
Inclination:       64.5573 deg
RA of node:       256.4785 deg
Eccentricity:    0.0024943
Arg of perigee:   330.3105 deg
Mean anomaly:      29.6540 deg
Mean motion:   14.82471544 rev/day
Decay rate:       9.24e-06 rev/day^2
Epoch rev:           22190
Checksum:              304

Satellite: SO-42
Catalog number: 26549
Epoch time:      04309.39587322
Element set:     977
Inclination:       64.5526 deg
RA of node:       277.3590 deg
Eccentricity:    0.0025042
Arg of perigee:   356.4409 deg
Mean anomaly:       3.6510 deg
Mean motion:   14.78794401 rev/day
Decay rate:       7.15e-06 rev/day^2
Epoch rev:           22151
Checksum:              309

Satellite: NO-44
Catalog number: 26931
Epoch time:      04309.84851382
Element set:     891
Inclination:       67.0515 deg
RA of node:        85.5602 deg
Eccentricity:    0.0006996
Arg of perigee:   271.6550 deg
Mean anomaly:      88.3776 deg
Mean motion:   14.29333361 rev/day
Decay rate:        8.0e-08 rev/day^2
Epoch rev:           16170
Checksum:              317

Satellite: AO-49
Catalog number: 27605
Epoch time:      04308.91681559
Element set:     577
Inclination:       64.5563 deg
RA of node:       100.2097 deg
Eccentricity:    0.0084574
Arg of perigee:   284.2288 deg
Mean anomaly:      74.9433 deg
Mean motion:   14.71958383 rev/day
Decay rate:       3.65e-06 rev/day^2
Epoch rev:           10069
Checksum:              340

Satellite: SO-50
Catalog number: 27607
Epoch time:      04308.92264374
Element set:     558
Inclination:       64.5564 deg
RA of node:       104.5785 deg
Eccentricity:    0.0085573
Arg of perigee:   283.1100 deg
Mean anomaly:      76.0458 deg
Mean motion:   14.70765766 rev/day
Decay rate:       5.31e-06 rev/day^2
Epoch rev:           10060
Checksum:              305

Satellite: AO-51
Catalog number: 28375
Epoch time:      04309.20406646
Element set:     100
Inclination:       98.2441 deg
RA of node:        14.3120 deg
Eccentricity:    0.0083855
Arg of perigee:   189.8430 deg
Mean anomaly:     170.1116 deg
Mean motion:   14.40402438 rev/day
Decay rate:        8.8e-07 rev/day^2
Epoch rev:            1822
Checksum:              264



Read previous mail | Read next mail


 11.09.2026 06:31:09lGo back Go up